| time (UTC) | temp F | wind direction | speed knots | gust knots | rain 1hr in | rain 24hr in | rain mn in | humidity % | barometer mb |
| 20260507040526 | 49 | 129 | 2.6 | 7.0 | 0.00 | 0.06 | 0.05 | 86 | 1014.7 |
| 20260507040043 | 49 | 129 | 2.6 | 7.0 | 0.00 | 0.06 | 0.05 | 86 | 1014.5 |
| 20260507035526 | 49 | 136 | 2.6 | 8.7 | 0.00 | 0.06 | 0.05 | 86 | 1014.6 |
| 20260507035026 | 49 | 122 | 3.5 | 10.4 | 0.00 | 0.06 | 0.05 | 86 | 1014.6 |
| 20260507034539 | 49 | 125 | 3.5 | 10.4 | 0.01 | 0.06 | 0.05 | 85 | 1014.3 |
| 20260507034025 | 49 | 134 | 3.5 | 9.6 | 0.02 | 0.06 | 0.05 | 85 | 1014.0 |
| 20260507033526 | 49 | 99 | 4.3 | 10.4 | 0.03 | 0.06 | 0.05 | 86 | 1014.1 |
| 20260507033039 | 49 | 64 | 5.2 | 12.2 | 0.03 | 0.06 | 0.05 | 86 | 1014.1 |
| 20260507032525 | 49 | 91 | 4.3 | 12.2 | 0.04 | 0.06 | 0.05 | 85 | 1014.2 |
| 20260507032025 | 49 | 84 | 4.3 | 11.3 | 0.04 | 0.06 | 0.05 | 86 | 1014.3 |
| 20260507031537 | 49 | 63 | 5.2 | 13.0 | 0.04 | 0.06 | 0.05 | 86 | 1014.2 |
| 20260507031022 | 49 | 103 | 2.6 | 13.0 | 0.04 | 0.06 | 0.05 | 86 | 1014.3 |
| 20260507030526 | 49 | 133 | 5.2 | 13.0 | 0.04 | 0.06 | 0.05 | 87 | 1014.3 |
| 20260507030038 | 49 | 101 | 5.2 | 12.2 | 0.04 | 0.06 | 0.05 | 87 | 1014.2 |
| 20260507025522 | 49 | 95 | 4.3 | 13.0 | 0.03 | 0.05 | 0.04 | 87 | 1014.2 |
| 20260507025025 | 49 | 56 | 4.3 | 13.0 | 0.03 | 0.05 | 0.04 | 87 | 1014.4 |
| 20260507024542 | 49 | 122 | 2.6 | 7.8 | 0.03 | 0.04 | 0.03 | 87 | 1014.5 |
| 20260507024025 | 49 | 145 | 2.6 | 8.7 | 0.02 | 0.03 | 0.03 | 86 | 1014.7 |
| 20260507023525 | 49 | 92 | 3.5 | 8.7 | 0.00 | 0.02 | 0.01 | 85 | 1014.9 |
| 20260507023047 | 50 | 79 | 4.3 | 8.7 | 0.00 | 0.02 | 0.01 | 83 | 1015.0 |
| 20260507022525 | 50 | 94 | 1.7 | 8.7 | 0.00 | 0.01 | 0.00 | 82 | 1015.1 |
| 20260507022026 | 50 | 103 | 0.0 | 8.7 | 0.00 | 0.01 | 0.00 | 82 | 1015.1 |
| 20260507021543 | 50 | 102 | 2.6 | 8.7 | 0.00 | 0.01 | 0.00 | 82 | 1014.9 |
| 20260507021026 | 50 | 63 | 3.5 | 8.7 | 0.00 | 0.01 | 0.00 | 82 | 1014.7 |
| 20260507020526 | 49 | 83 | 3.5 | 8.7 | 0.00 | 0.01 | 0.00 | 83 | 1014.7 |
| 20260507020230 | 49 | 69 | 4.3 | 9.6 | 0.00 | 0.01 | 0.00 | 84 | 1014.6 |
| 20260507015526 | 49 | 49 | 3.5 | 9.6 | 0.00 | 0.01 | 0.00 | 84 | 1014.7 |
| 20260507015026 | 49 | 123 | 4.3 | 9.6 | 0.00 | 0.01 | 0.00 | 85 | 1014.8 |
| 20260507014546 | 49 | 150 | 1.7 | 4.3 | 0.00 | 0.01 | 0.00 | 86 | 1014.6 |
| 20260507014026 | 49 | 98 | 0.9 | 5.2 | 0.00 | 0.01 | 0.00 | 86 | 1014.7 |
| 20260507013526 | 49 | 54 | 2.6 | 7.0 | 0.00 | 0.01 | 0.00 | 87 | 1014.7 |
| 20260507013049 | 49 | 83 | 2.6 | 7.0 | 0.00 | 0.01 | 0.00 | 87 | 1014.9 |
| 20260507012527 | 49 | 11 | 0.9 | 7.0 | 0.00 | 0.01 | 0.00 | 87 | 1014.8 |
| 20260507012026 | 49 | 120 | 0.9 | 7.0 | 0.00 | 0.01 | 0.00 | 87 | 1014.7 |
| 20260507011538 | 49 | 80 | 2.6 | 5.2 | 0.00 | 0.01 | 0.00 | 87 | 1014.7 |
| 20260507011025 | 49 | 70 | 0.9 | 5.2 | 0.00 | 0.01 | 0.00 | 87 | 1014.8 |
| 20260507010526 | 49 | 101 | 0.9 | 7.8 | 0.00 | 0.01 | 0.00 | 86 | 1014.9 |
| 20260507010039 | 49 | 59 | 1.7 | 7.8 | 0.00 | 0.01 | 0.00 | 86 | 1014.9 |
| 20260507005526 | 50 | 69 | 0.9 | 11.3 | 0.00 | 0.01 | 0.00 | 85 | 1014.9 |
| 20260507005026 | 50 | 69 | 2.6 | 11.3 | 0.00 | 0.01 | 0.00 | 84 | 1015.0 |
| 20260507004548 | 50 | 115 | 4.3 | 11.3 | 0.00 | 0.01 | 0.00 | 83 | 1014.9 |
| 20260507004025 | 50 | 81 | 3.5 | 12.2 | 0.00 | 0.01 | 0.00 | 83 | 1014.9 |
| 20260507003523 | 50 | 120 | 3.5 | 12.2 | 0.00 | 0.01 | 0.00 | 82 | 1015.1 |
| 20260507003044 | 50 | 116 | 4.3 | 12.2 | 0.00 | 0.01 | 0.00 | 82 | 1015.1 |
| 20260507002523 | 50 | 110 | 2.6 | 11.3 | 0.00 | 0.01 | 0.00 | 83 | 1015.2 |
| 20260507002026 | 51 | 111 | 3.5 | 11.3 | 0.00 | 0.01 | 0.00 | 83 | 1015.2 |
| 20260507001545 | 51 | 84 | 4.3 | 11.3 | 0.00 | 0.01 | 0.00 | 82 | 1015.1 |
| 20260507001022 | 51 | 96 | 4.3 | 13.9 | 0.00 | 0.01 | 0.00 | 81 | 1015.3 |
| 20260507000525 | 52 | 99 | 7.0 | 13.9 | 0.00 | 0.01 | 0.00 | 79 | 1015.3 |
| 20260507000038 | 52 | 143 | 4.3 | 13.0 | 0.00 | 0.01 | 0.00 | 79 | 1015.2 |
| 20260506235528 | 52 | 76 | 5.2 | 12.2 | 0.00 | 0.01 | 0.00 | 78 | 1015.1 |
| 20260506235023 | 52 | 105 | 3.5 | 11.3 | 0.00 | 0.01 | 0.00 | 78 | 1015.2 |
| 20260506234543 | 52 | 63 | 5.2 | 11.3 | 0.00 | 0.01 | 0.00 | 77 | 1015.2 |
| 20260506234025 | 52 | 97 | 2.6 | 7.8 | 0.00 | 0.01 | 0.00 | 78 | 1015.2 |
| 20260506233526 | 52 | 141 | 1.7 | 7.8 | 0.00 | 0.01 | 0.00 | 78 | 1015.2 |
| 20260506233046 | 52 | 120 | 3.5 | 11.3 | 0.00 | 0.01 | 0.00 | 79 | 1015.4 |
| 20260506232525 | 52 | 122 | 4.3 | 11.3 | 0.00 | 0.01 | 0.00 | 79 | 1015.3 |
| 20260506232026 | 52 | 102 | 3.5 | 9.6 | 0.00 | 0.01 | 0.00 | 80 | 1015.4 |
| 20260506231539 | 52 | 57 | 4.3 | 9.6 | 0.00 | 0.01 | 0.00 | 79 | 1015.4 |
| 20260506231026 | 52 | 134 | 4.3 | 9.6 | 0.00 | 0.01 | 0.00 | 80 | 1015.5 |
| 20260506230526 | 52 | 65 | 3.5 | 7.8 | 0.00 | 0.01 | 0.00 | 81 | 1015.5 |
| 20260506230046 | 52 | 113 | 3.5 | 7.8 | 0.00 | 0.01 | 0.00 | 82 | 1015.5 |
| 20260506225525 | 52 | 57 | 1.7 | 8.7 | 0.00 | 0.01 | 0.00 | 82 | 1015.5 |
| 20260506225027 | 52 | 106 | 1.7 | 8.7 | 0.00 | 0.01 | 0.00 | 81 | 1015.4 |
| 20260506224544 | 52 | 68 | 2.6 | 7.8 | 0.00 | 0.01 | 0.00 | 80 | 1015.4 |
| 20260506224029 | 53 | 72 | 1.7 | 6.1 | 0.00 | 0.01 | 0.00 | 79 | 1015.5 |
| 20260506223523 | 53 | 0 | 1.7 | 6.1 | 0.00 | 0.00 | 0.00 | 76 | 1015.5 |
| 20260506223043 | 54 | 131 | 2.6 | 6.1 | 0.00 | 0.00 | 0.00 | 74 | 1015.9 |
| 20260506222522 | 54 | 114 | 1.7 | 4.3 | 0.00 | 0.00 | 0.00 | 74 | 1015.7 |
| 20260506222028 | 54 | 86 | 0.0 | 3.5 | 0.00 | 0.00 | 0.00 | 75 | 1015.9 |
| 20260506221539 | 54 | 0 | 0.9 | 5.2 | 0.00 | 0.00 | 0.00 | 76 | 1015.8 |
| 20260506221025 | 54 | 0 | 1.7 | 7.0 | 0.00 | 0.00 | 0.00 | 75 | 1015.8 |
| 20260506220526 | 54 | 98 | 1.7 | 7.0 | 0.00 | 0.00 | 0.00 | 74 | 1015.7 |
| 20260506220041 | 54 | 115 | 2.6 | 7.0 | 0.00 | 0.00 | 0.00 | 73 | 1015.7 |
| 20260506215525 | 54 | 96 | 1.7 | 5.2 | 0.00 | 0.00 | 0.00 | 74 | 1015.6 |
| 20260506215029 | 54 | 101 | 1.7 | 5.2 | 0.00 | 0.00 | 0.00 | 74 | 1015.8 |
| 20260506214542 | 54 | 0 | 0.9 | 5.2 | 0.00 | 0.00 | 0.00 | 73 | 1015.7 |
| 20260506214023 | 54 | 90 | 0.9 | 9.6 | 0.00 | 0.00 | 0.00 | 72 | 1015.7 |
| 20260506213526 | 54 | 109 | 0.0 | 9.6 | 0.00 | 0.00 | 0.00 | 72 | 1015.7 |
| 20260506213051 | 54 | 122 | 3.5 | 9.6 | 0.00 | 0.00 | 0.00 | 71 | 1015.7 |
| 20260506212525 | 54 | 152 | 2.6 | 6.1 | 0.00 | 0.00 | 0.00 | 72 | 1015.6 |
| 20260506212026 | 54 | 0 | 0.9 | 5.2 | 0.00 | 0.00 | 0.00 | 73 | 1015.6 |
| 20260506211537 | 54 | 0 | 0.9 | 5.2 | 0.00 | 0.00 | 0.00 | 73 | 1015.5 |
| 20260506211026 | 54 | 0 | 1.7 | 5.2 | 0.00 | 0.00 | 0.00 | 74 | 1015.6 |
| 20260506210523 | 55 | 0 | 1.7 | 5.2 | 0.00 | 0.00 | 0.00 | 72 | 1015.5 |
| 20260506210042 | 54 | 94 | 1.7 | 7.8 | 0.00 | 0.00 | 0.00 | 71 | 1015.5 |
| 20260506205528 | 54 | 119 | 0.9 | 7.8 | 0.00 | 0.00 | 0.00 | 72 | 1015.6 |
| 20260506205026 | 54 | 0 | 0.0 | 4.3 | 0.00 | 0.00 | 0.00 | 73 | 1015.4 |
| 20260506204541 | 54 | 105 | 0.0 | 4.3 | 0.00 | 0.00 | 0.00 | 73 | 1015.6 |
| 20260506204025 | 54 | 0 | 0.0 | 1.7 | 0.00 | 0.00 | 0.00 | 74 | 1015.6 |
| 20260506203526 | 54 | 0 | 0.0 | 3.5 | 0.00 | 0.00 | 0.00 | 74 | 1015.6 |
| 20260506203040 | 54 | 0 | 0.9 | 3.5 | 0.00 | 0.00 | 0.00 | 74 | 1015.7 |
| 20260506202526 | 54 | 268 | 0.9 | 4.3 | 0.00 | 0.00 | 0.00 | 76 | 1015.7 |
| 20260506202026 | 54 | 0 | 0.0 | 5.2 | 0.00 | 0.00 | 0.00 | 77 | 1015.6 |
| 20260506201541 | 54 | 103 | 1.7 | 6.1 | 0.00 | 0.00 | 0.00 | 77 | 1015.6 |
| 20260506201025 | 54 | 103 | 1.7 | 7.8 | 0.00 | 0.00 | 0.00 | 78 | 1015.4 |
| 20260506200525 | 54 | 103 | 3.5 | 8.7 | 0.00 | 0.00 | 0.00 | 79 | 1015.5 |
| 20260506200038 | 54 | 107 | 3.5 | 9.6 | 0.00 | 0.00 | 0.00 | 79 | 1015.6 |
| 20260506195526 | 54 | 89 | 3.5 | 9.6 | 0.00 | 0.00 | 0.00 | 79 | 1015.6 |
| 20260506195026 | 54 | 146 | 4.3 | 9.6 | 0.00 | 0.00 | 0.00 | 79 | 1015.5 |
| 20260506194539 | 54 | 64 | 4.3 | 9.6 | 0.00 | 0.00 | 0.00 | 78 | 1015.6 |
| 20260506194027 | 54 | 74 | 4.3 | 8.7 | 0.00 | 0.00 | 0.00 | 77 | 1015.6 |
| 20260506193528 | 54 | 60 | 2.6 | 6.1 | 0.00 | 0.00 | 0.00 | 77 | 1015.6 |
| 20260506193040 | 54 | 143 | 2.6 | 8.7 | 0.00 | 0.00 | 0.00 | 77 | 1015.6 |
| 20260506192525 | 54 | 127 | 1.7 | 8.7 | 0.00 | 0.00 | 0.00 | 78 | 1015.6 |
| 20260506192026 | 54 | 159 | 0.9 | 6.1 | 0.00 | 0.00 | 0.00 | 78 | 1015.5 |
| 20260506191541 | 54 | 117 | 0.9 | 4.3 | 0.00 | 0.00 | 0.00 | 79 | 1015.6 |
| 20260506191026 | 54 | 0 | 0.0 | 0.9 | 0.00 | 0.00 | 0.00 | 80 | 1015.6 |
| 20260506190522 | 53 | 0 | 0.0 | 2.6 | 0.00 | 0.00 | 0.00 | 81 | 1015.4 |
| 20260506190038 | 53 | 0 | 0.0 | 6.1 | 0.00 | 0.00 | 0.00 | 82 | 1015.2 |
| 20260506185528 | 53 | 0 | 0.0 | 6.1 | 0.00 | 0.00 | 0.00 | 82 | 1015.2 |
| 20260506185026 | 53 | 118 | 1.7 | 7.8 | 0.00 | 0.00 | 0.00 | 83 | 1015.1 |
| 20260506184551 | 53 | 99 | 2.6 | 7.8 | 0.00 | 0.00 | 0.00 | 83 | 1015.0 |
| 20260506184026 | 53 | 117 | 2.6 | 7.8 | 0.00 | 0.00 | 0.00 | 83 | 1014.9 |
| 20260506183528 | 53 | 61 | 3.5 | 7.8 | 0.00 | 0.00 | 0.00 | 84 | 1015.0 |
| 20260506183051 | 53 | 93 | 0.9 | 7.8 | 0.00 | 0.00 | 0.00 | 84 | 1015.0 |
| 20260506182525 | 53 | 81 | 1.7 | 7.8 | 0.00 | 0.00 | 0.00 | 84 | 1015.0 |
| 20260506182026 | 53 | 83 | 0.0 | 3.5 | 0.00 | 0.00 | 0.00 | 84 | 1015.0 |
| 20260506181608 | 53 | 0 | 0.0 | 3.5 | 0.00 | 0.00 | 0.00 | 84 | 1015.0 |
| 20260506181030 | 53 | 0 | 0.0 | 3.5 | 0.00 | 0.00 | 0.00 | 84 | 1015.0 |
| 20260506180526 | 53 | 0 | 0.0 | 3.5 | 0.00 | 0.00 | 0.00 | 84 | 1015.0 |
| 20260506180047 | 53 | 104 | 0.0 | 3.5 | 0.00 | 0.00 | 0.00 | 84 | 1014.9 |
| 20260506175525 | 53 | 0 | 0.0 | 5.2 | 0.00 | 0.00 | 0.00 | 83 | 1014.9 |
| 20260506175025 | 53 | 114 | 1.7 | 7.0 | 0.00 | 0.00 | 0.00 | 82 | 1015.0 |
| 20260506174541 | 54 | 113 | 1.7 | 7.8 | 0.00 | 0.00 | 0.00 | 80 | 1015.0 |
| 20260506174027 | 54 | 85 | 2.6 | 9.6 | 0.00 | 0.00 | 0.00 | 79 | 1015.0 |
| 20260506173528 | 54 | 105 | 2.6 | 9.6 | 0.00 | 0.00 | 0.00 | 79 | 1015.1 |
| 20260506173055 | 54 | 103 | 4.3 | 11.3 | 0.00 | 0.00 | 0.00 | 79 | 1014.9 |
| 20260506172526 | 54 | 108 | 3.5 | 11.3 | 0.00 | 0.00 | 0.00 | 80 | 1015.0 |
| 20260506172026 | 54 | 115 | 3.5 | 9.6 | 0.00 | 0.00 | 0.00 | 80 | 1014.9 |
| 20260506171540 | 54 | 113 | 3.5 | 8.7 | 0.00 | 0.00 | 0.00 | 81 | 1014.9 |
| 20260506171026 | 54 | 108 | 4.3 | 8.7 | 0.00 | 0.00 | 0.00 | 82 | 1015.0 |
| 20260506170525 | 53 | 108 | 3.5 | 7.8 | 0.00 | 0.00 | 0.00 | 83 | 1015.0 |
| 20260506170041 | 53 | 134 | 2.6 | 7.8 | 0.00 | 0.00 | 0.00 | 84 | 1015.1 |
| 20260506165526 | 53 | 105 | 1.7 | 7.8 | 0.00 | 0.00 | 0.00 | 84 | 1015.0 |
| 20260506165028 | 53 | 72 | 2.6 | 8.7 | 0.00 | 0.00 | 0.00 | 85 | 1015.0 |
| 20260506164539 | 53 | 120 | 4.3 | 8.7 | 0.00 | 0.00 | 0.00 | 85 | 1014.9 |
| 20260506164026 | 53 | 86 | 4.3 | 8.7 | 0.00 | 0.00 | 0.00 | 85 | 1014.8 |
| 20260506163525 | 54 | 99 | 2.6 | 7.8 | 0.00 | 0.00 | 0.00 | 84 | 1014.9 |
| 20260506163040 | 54 | 86 | 2.6 | 7.8 | 0.00 | 0.00 | 0.00 | 83 | 1014.7 |
| 20260506162522 | 54 | 128 | 3.5 | 8.7 | 0.00 | 0.00 | 0.00 | 82 | 1014.9 |
| 20260506162028 | 54 | 72 | 2.6 | 9.6 | 0.00 | 0.00 | 0.00 | 82 | 1014.7 |
| 20260506161548 | 54 | 217 | 2.6 | 11.3 | 0.00 | 0.00 | 0.00 | 82 | 1014.9 |
| 20260506161026 | 54 | 95 | 4.3 | 12.2 | 0.00 | 0.00 | 0.00 | 82 | 1014.9 |
| 20260506160526 | 54 | 112 | 4.3 | 15.6 | 0.00 | 0.00 | 0.00 | 82 | 1014.9 |
| 20260506160051 | 54 | 137 | 7.0 | 16.5 | 0.00 | 0.00 | 0.00 | 82 | 1014.7 |
| 20260506155529 | 54 | 65 | 6.1 | 16.5 | 0.00 | 0.00 | 0.00 | 82 | 1014.7 |
| 20260506155026 | 54 | 106 | 5.2 | 16.5 | 0.00 | 0.00 | 0.00 | 82 | 1015.0 |
| 20260506154541 | 54 | 91 | 6.1 | 12.2 | 0.00 | 0.00 | 0.00 | 81 | 1015.1 |
| 20260506154027 | 54 | 117 | 5.2 | 12.2 | 0.00 | 0.00 | 0.00 | 81 | 1015.1 |
| 20260506153525 | 54 | 114 | 4.3 | 9.6 | 0.00 | 0.00 | 0.00 | 80 | 1015.0 |
| 20260506153059 | 54 | 86 | 3.5 | 11.3 | 0.00 | 0.00 | 0.00 | 80 | 1015.1 |
| 20260506152526 | 54 | 124 | 4.3 | 11.3 | 0.00 | 0.00 | 0.00 | 80 | 1015.2 |
| 20260506152026 | 54 | 89 | 5.2 | 10.4 | 0.00 | 0.00 | 0.00 | 81 | 1015.3 |
| 20260506151543 | 54 | 130 | 6.1 | 10.4 | 0.00 | 0.00 | 0.00 | 81 | 1015.3 |
| 20260506151026 | 54 | 110 | 3.5 | 9.6 | 0.00 | 0.00 | 0.00 | 82 | 1015.4 |
| 20260506150526 | 54 | 79 | 4.3 | 10.4 | 0.00 | 0.00 | 0.00 | 82 | 1015.3 |
| 20260506150046 | 54 | 50 | 3.5 | 10.4 | 0.00 | 0.00 | 0.00 | 83 | 1015.3 |
| 20260506145522 | 54 | 213 | 3.5 | 11.3 | 0.00 | 0.03 | 0.00 | 83 | 1015.2 |
| 20260506145027 | 54 | 81 | 3.5 | 11.3 | 0.00 | 0.03 | 0.00 | 83 | 1015.2 |
| 20260506144549 | 53 | 75 | 3.5 | 9.6 | 0.00 | 0.03 | 0.00 | 84 | 1015.2 |
| 20260506144026 | 53 | 98 | 3.5 | 10.4 | 0.00 | 0.03 | 0.00 | 84 | 1015.2 |
| 20260506143526 | 53 | 86 | 4.3 | 12.2 | 0.00 | 0.03 | 0.00 | 85 | 1015.4 |
| 20260506143039 | 53 | 101 | 3.5 | 12.2 | 0.00 | 0.03 | 0.00 | 85 | 1015.4 |
| 20260506142525 | 53 | 117 | 3.5 | 10.4 | 0.00 | 0.03 | 0.00 | 86 | 1015.4 |
| 20260506142025 | 53 | 122 | 3.5 | 10.4 | 0.00 | 0.03 | 0.00 | 86 | 1015.2 |
| 20260506141541 | 53 | 170 | 4.3 | 9.6 | 0.00 | 0.03 | 0.00 | 86 | 1015.2 |
| 20260506141026 | 53 | 117 | 3.5 | 9.6 | 0.00 | 0.03 | 0.00 | 86 | 1015.2 |
| 20260506140526 | 53 | 88 | 4.3 | 13.0 | 0.00 | 0.03 | 0.00 | 85 | 1015.2 |
| 20260506140039 | 53 | 130 | 4.3 | 13.0 | 0.00 | 0.03 | 0.00 | 84 | 1015.3 |
| 20260506135526 | 53 | 114 | 4.3 | 13.9 | 0.00 | 0.03 | 0.00 | 83 | 1015.3 |
| 20260506135026 | 54 | 100 | 5.2 | 14.8 | 0.00 | 0.03 | 0.00 | 80 | 1015.2 |
| 20260506134539 | 54 | 79 | 5.2 | 14.8 | 0.00 | 0.02 | 0.00 | 76 | 1015.2 |
| 20260506134026 | 54 | 95 | 7.0 | 14.8 | 0.00 | 0.02 | 0.00 | 75 | 1015.1 |
| 20260506133526 | 55 | 88 | 6.1 | 13.9 | 0.00 | 0.02 | 0.00 | 73 | 1015.0 |
| 20260506133042 | 55 | 40 | 5.2 | 13.9 | 0.00 | 0.02 | 0.00 | 70 | 1014.9 |
| 20260506132528 | 56 | 160 | 3.5 | 13.9 | 0.00 | 0.02 | 0.00 | 68 | 1015.1 |
| 20260506132026 | 56 | 143 | 7.0 | 18.2 | 0.00 | 0.02 | 0.00 | 66 | 1015.1 |
| 20260506131541 | 57 | 120 | 5.2 | 18.2 | 0.00 | 0.02 | 0.00 | 63 | 1015.2 |
| 20260506131026 | 59 | 100 | 7.8 | 17.4 | 0.00 | 0.02 | 0.00 | 59 | 1015.2 |
| 20260506130526 | 60 | 63 | 5.2 | 13.9 | 0.00 | 0.02 | 0.00 | 55 | 1015.1 |
| 20260506130040 | 61 | 103 | 4.3 | 9.6 | 0.00 | 0.02 | 0.00 | 57 | 1015.1 |
| 20260506125525 | 61 | 98 | 2.6 | 8.7 | 0.00 | 0.02 | 0.00 | 57 | 1015.2 |
| 20260506125028 | 61 | 130 | 2.6 | 10.4 | 0.00 | 0.02 | 0.00 | 57 | 1015.2 |
| 20260506124538 | 62 | 113 | 3.5 | 12.2 | 0.00 | 0.02 | 0.00 | 57 | 1015.2 |
| 20260506124026 | 62 | 132 | 5.2 | 12.2 | 0.00 | 0.02 | 0.00 | 55 | 1015.1 |
| 20260506123522 | 63 | 160 | 4.3 | 12.2 | 0.00 | 0.02 | 0.00 | 55 | 1015.1 |
| 20260506123046 | 63 | 116 | 3.5 | 12.2 | 0.00 | 0.02 | 0.00 | 55 | 1015.1 |
| 20260506122526 | 64 | 174 | 5.2 | 12.2 | 0.00 | 0.02 | 0.00 | 53 | 1015.0 |
| 20260506122026 | 65 | 126 | 5.2 | 12.2 | 0.00 | 0.02 | 0.00 | 53 | 1015.1 |
| 20260506121542 | 66 | 122 | 4.3 | 13.9 | 0.00 | 0.02 | 0.00 | 52 | 1015.0 |
| 20260506121026 | 66 | 205 | 4.3 | 13.9 | 0.00 | 0.02 | 0.00 | 51 | 1015.0 |
| 20260506120530 | 66 | 148 | 3.5 | 15.6 | 0.00 | 0.02 | 0.00 | 53 | 1014.9 |
| 20260506120041 | 66 | 84 | 6.1 | 15.6 | 0.00 | 0.02 | 0.00 | 49 | 1015.1 |
| 20260506115529 | 67 | 98 | 6.1 | 13.9 | 0.00 | 0.02 | 0.00 | 49 | 1015.0 |
| 20260506115026 | 67 | 103 | 6.1 | 12.2 | 0.00 | 0.02 | 0.00 | 50 | 1015.1 |
| 20260506114538 | 66 | 105 | 4.3 | 12.2 | 0.00 | 0.02 | 0.00 | 50 | 1015.0 |
| 20260506114026 | 65 | 56 | 3.5 | 10.4 | 0.00 | 0.02 | 0.00 | 52 | 1015.1 |
| 20260506113525 | 65 | 112 | 3.5 | 10.4 | 0.00 | 0.02 | 0.00 | 50 | 1015.1 |
| 20260506113042 | 65 | 205 | 5.2 | 9.6 | 0.00 | 0.02 | 0.00 | 49 | 1015.1 |
| 20260506112527 | 65 | 137 | 4.3 | 9.6 | 0.00 | 0.02 | 0.00 | 48 | 1015.1 |
| 20260506112026 | 65 | 129 | 3.5 | 9.6 | 0.00 | 0.02 | 0.00 | 47 | 1015.1 |
| 20260506111600 | 65 | 160 | 5.2 | 15.6 | 0.00 | 0.02 | 0.00 | 44 | 1015.1 |
| 20260506111027 | 65 | 125 | 5.2 | 15.6 | 0.00 | 0.02 | 0.00 | 43 | 1015.2 |
| 20260506110526 | 65 | 139 | 4.3 | 11.3 | 0.00 | 0.02 | 0.00 | 42 | 1015.2 |
| 20260506110041 | 66 | 104 | 3.5 | 15.6 | 0.00 | 0.02 | 0.00 | 40 | 1015.3 |
| 20260506105525 | 66 | 176 | 3.5 | 15.6 | 0.00 | 0.02 | 0.00 | 41 | 1015.2 |
| 20260506105028 | 66 | 113 | 5.2 | 15.6 | 0.00 | 0.02 | 0.00 | 39 | 1015.2 |
| 20260506104539 | 66 | 148 | 4.3 | 9.6 | 0.00 | 0.02 | 0.00 | 40 | 1015.2 |
| 20260506104026 | 66 | 134 | 4.3 | 9.6 | 0.00 | 0.02 | 0.00 | 40 | 1015.3 |
| 20260506103527 | 67 | 194 | 5.2 | 13.0 | 0.00 | 0.02 | 0.00 | 40 | 1015.4 |
| 20260506103050 | 67 | 167 | 5.2 | 13.9 | 0.00 | 0.02 | 0.00 | 44 | 1015.3 |
| 20260506102525 | 67 | 100 | 5.2 | 13.9 | 0.00 | 0.02 | 0.00 | 42 | 1015.3 |
| 20260506102026 | 67 | 134 | 5.2 | 13.0 | 0.00 | 0.02 | 0.00 | 42 | 1015.2 |
| 20260506101538 | 67 | 146 | 4.3 | 13.0 | 0.00 | 0.02 | 0.00 | 45 | 1015.3 |
| 20260506101029 | 67 | 209 | 5.2 | 13.0 | 0.00 | 0.02 | 0.00 | 44 | 1015.4 |
| 20260506100526 | 67 | 110 | 3.5 | 13.0 | 0.00 | 0.02 | 0.00 | 45 | 1015.5 |
| 20260506100039 | 67 | 105 | 6.1 | 13.0 | 0.00 | 0.02 | 0.00 | 44 | 1015.5 |
| 20260506095526 | 67 | 196 | 3.5 | 13.9 | 0.00 | 0.02 | 0.00 | 45 | 1015.4 |
| 20260506095027 | 66 | 151 | 7.0 | 13.9 | 0.00 | 0.02 | 0.00 | 46 | 1015.5 |
| 20260506094542 | 67 | 148 | 3.5 | 10.4 | 0.00 | 0.02 | 0.00 | 47 | 1015.6 |
| 20260506094026 | 67 | 168 | 4.3 | 11.3 | 0.00 | 0.02 | 0.00 | 46 | 1015.6 |
| 20260506093528 | 66 | 164 | 5.2 | 11.3 | 0.00 | 0.02 | 0.00 | 49 | 1015.5 |
| 20260506093039 | 66 | 127 | 5.2 | 12.2 | 0.00 | 0.02 | 0.00 | 48 | 1015.6 |
| 20260506092526 | 66 | 127 | 6.1 | 12.2 | 0.00 | 0.02 | 0.00 | 48 | 1015.5 |
| 20260506092027 | 65 | 113 | 4.3 | 12.2 | 0.00 | 0.02 | 0.00 | 51 | 1015.3 |
| 20260506091546 | 65 | 139 | 5.2 | 13.0 | 0.00 | 0.02 | 0.00 | 53 | 1015.5 |
| 20260506091026 | 65 | 195 | 3.5 | 13.0 | 0.00 | 0.02 | 0.00 | 53 | 1015.6 |
| 20260506090526 | 64 | 112 | 4.3 | 13.0 | 0.00 | 0.02 | 0.00 | 55 | 1015.6 |
| 20260506090039 | 64 | 129 | 5.2 | 13.0 | 0.00 | 0.02 | 0.00 | 55 | 1015.6 |
| 20260506085528 | 64 | 68 | 5.2 | 13.0 | 0.00 | 0.02 | 0.00 | 55 | 1015.4 |
| 20260506085026 | 64 | 108 | 4.3 | 11.3 | 0.00 | 0.02 | 0.00 | 56 | 1015.4 |
| 20260506084545 | 63 | 150 | 2.6 | 11.3 | 0.00 | 0.02 | 0.00 | 57 | 1015.3 |
| 20260506084026 | 63 | 183 | 5.2 | 11.3 | 0.00 | 0.02 | 0.00 | 58 | 1015.5 |
| 20260506083529 | 62 | 105 | 5.2 | 12.2 | 0.00 | 0.02 | 0.00 | 57 | 1015.4 |
| 20260506083043 | 62 | 121 | 6.1 | 12.2 | 0.00 | 0.02 | 0.00 | 57 | 1015.4 |
| 20260506082526 | 61 | 160 | 5.2 | 10.4 | 0.00 | 0.02 | 0.00 | 58 | 1015.3 |
| 20260506082026 | 61 | 148 | 4.3 | 11.3 | 0.00 | 0.02 | 0.00 | 58 | 1015.3 |
| 20260506081540 | 61 | 154 | 4.3 | 11.3 | 0.00 | 0.02 | 0.00 | 57 | 1015.4 |
| 20260506081029 | 61 | 113 | 6.1 | 11.3 | 0.00 | 0.02 | 0.00 | 55 | 1015.4 |
| 20260506080526 | 61 | 65 | 4.3 | 11.3 | 0.00 | 0.02 | 0.00 | 56 | 1015.3 |
| 20260506073528 | 61 | 127 | 4.3 | 11.3 | 0.00 | 0.02 | 0.00 | 53 | 1015.4 |
| 20260506073038 | 61 | 115 | 3.5 | 11.3 | 0.00 | 0.02 | 0.00 | 53 | 1015.4 |
| 20260506072529 | 61 | 132 | 4.3 | 11.3 | 0.00 | 0.02 | 0.00 | 52 | 1015.3 |
| 20260506072026 | 61 | 89 | 3.5 | 10.4 | 0.00 | 0.02 | 0.00 | 53 | 1015.5 |
| 20260506071544 | 61 | 154 | 1.7 | 10.4 | 0.00 | 0.02 | 0.00 | 54 | 1015.5 |
| 20260506071026 | 61 | 139 | 3.5 | 8.7 | 0.00 | 0.02 | 0.00 | 53 | 1015.5 |
| 20260506070528 | 61 | 139 | 2.6 | 8.7 | 0.00 | 0.02 | 0.00 | 53 | 1015.4 |
| 20260506062027 | 59 | 155 | 2.6 | 7.0 | 0.00 | 0.02 | 0.00 | 53 | 1015.7 |
| 20260506061543 | 58 | 141 | 0.9 | 4.3 | 0.00 | 0.02 | 0.00 | 56 | 1015.7 |
| 20260506061027 | 57 | 219 | 0.0 | 4.3 | 0.00 | 0.02 | 0.00 | 56 | 1015.7 |
| 20260506060527 | 57 | 136 | 0.9 | 4.3 | 0.00 | 0.02 | 0.00 | 57 | 1015.6 |
| 20260506051026 | 55 | 115 | 3.5 | 10.4 | 0.00 | 0.02 | 0.00 | 56 | 1015.1 |
| 20260506050527 | 55 | 113 | 2.6 | 7.0 | 0.00 | 0.02 | 0.00 | 56 | 1015.2 |
| 20260506045025 | 54 | 62 | 2.6 | 7.0 | 0.00 | 0.02 | 0.00 | 57 | 1015.2 |
| 20260506044539 | 54 | 150 | 2.6 | 7.0 | 0.00 | 0.02 | 0.00 | 58 | 1015.2 |
| 20260506044026 | 53 | 86 | 2.6 | 4.3 | 0.00 | 0.02 | 0.00 | 58 | 1015.3 |
| 20260506043529 | 53 | 72 | 0.0 | 6.1 | 0.00 | 0.02 | 0.00 | 58 | 1015.3 |
| 20260506043038 | 53 | 122 | 0.0 | 6.1 | 0.00 | 0.02 | 0.00 | 58 | 1015.3 |
| 20260506042526 | 53 | 0 | 1.7 | 9.6 | 0.00 | 0.02 | 0.00 | 57 | 1015.2 |
| 20260506042027 | 52 | 110 | 2.6 | 9.6 | 0.00 | 0.02 | 0.00 | 58 | 1015.0 |
| 20260506041540 | 52 | 85 | 0.9 | 5.2 | 0.00 | 0.02 | 0.00 | 58 | 1014.9 |
| 20260506041025 | 52 | 75 | 0.9 | 4.3 | 0.00 | 0.02 | 0.00 | 58 | 1015.1 |